• In Belarus
  • List of Countries
  • For 7 days
  • Water Temperature
  • Weather Map
  • Weather Widgets
  • user-avatar
    Login

    Hourly Weather Windhuk

    Today, 7 April, Tuesday

    Time Temperature Precipitation Wind Pressure Humidity
    00:00 +16°C° 0 mm 2 mps 621 mmHg 26%
    01:00 +16°C° 0 mm 1 mps 621 mmHg 26%
    02:00 +15°C° 0 mm 1 mps 621 mmHg 26%
    03:00 +15°C° 0 mm 1 mps 620 mmHg 27%
    04:00 +14°C° 0 mm 1 mps 620 mmHg 27%
    05:00 +15°C° 0 mm 0 mps 621 mmHg 30%
    06:00 +16°C° 0 mm 0 mps 622 mmHg 33%
    07:00 +19°C° 0 mm 0 mps 624 mmHg 36%
    08:00 +22°C° 0 mm 1 mps 624 mmHg 29%
    09:00 +23°C° 0 mm 2 mps 624 mmHg 22%
    10:00 +25°C° 0 mm 3 mps 625 mmHg 15%
    11:00 +26°C° 0 mm 4 mps 624 mmHg 16%
    12:00 +27°C° 0 mm 6 mps 624 mmHg 17%
    13:00 +28°C° 0 mm 7 mps 624 mmHg 14%
    14:00 +27°C° 0 mm 7 mps 623 mmHg 14%
    15:00 +27°C° 0 mm 7 mps 623 mmHg 15%
    16:00 +27°C° 0 mm 7 mps 622 mmHg 15%
    17:00 +23°C° 0 mm 6 mps 622 mmHg 17%
    18:00 +21°C° 0 mm 5 mps 622 mmHg 19%
    19:00 +19°C° 0 mm 3 mps 621 mmHg 21%
    20:00 +18°C° 0 mm 3 mps 621 mmHg 22%
    21:00 +17°C° 0 mm 2 mps 621 mmHg 22%
    22:00 +17°C° 0 mm 2 mps 621 mmHg 23%
    23:00 +16°C° 0 mm 1 mps 621 mmHg 25%

    Tomorrow, 8 April, Wednesday

    Time Temperature Precipitation Wind Pressure Humidity
    00:00 +16°C° 0 mm 1 mps 621 mmHg 26%
    01:00 +15°C° 0 mm 1 mps 621 mmHg 28%
    02:00 +15°C° 0 mm 1 mps 620 mmHg 28%
    03:00 +15°C° 0 mm 1 mps 620 mmHg 28%
    04:00 +15°C° 0 mm 1 mps 620 mmHg 28%
    05:00 +15°C° 0 mm 1 mps 621 mmHg 31%
    06:00 +16°C° 0 mm 1 mps 621 mmHg 34%
    07:00 +18°C° 0 mm 1 mps 622 mmHg 38%
    08:00 +20°C° 0 mm 2 mps 623 mmHg 34%
    09:00 +22°C° 0 mm 3 mps 624 mmHg 30%
    10:00 +26°C° 0 mm 4 mps 625 mmHg 25%
    11:00 +27°C° 0 mm 5 mps 624 mmHg 25%
    12:00 +27°C° 0 mm 5 mps 624 mmHg 24%
    13:00 +28°C° 0 mm 6 mps 624 mmHg 24%
    14:00 +28°C° 0 mm 5 mps 623 mmHg 23%
    15:00 +28°C° 0 mm 5 mps 623 mmHg 23%
    16:00 +28°C° 0 mm 5 mps 623 mmHg 22%
    17:00 +26°C° 0 mm 4 mps 622 mmHg 27%
    18:00 +24°C° 0 mm 3 mps 622 mmHg 31%
    19:00 +20°C° 0 mm 2 mps 621 mmHg 35%
    20:00 +19°C° 0 mm 2 mps 622 mmHg 37%
    21:00 +20°C° 0 mm 1 mps 622 mmHg 38%
    22:00 +19°C° 0 mm 1 mps 622 mmHg 39%
    23:00 +16°C° 0 mm 0 mps 622 mmHg 40%

    Day after tomorrow, 9 April, Thursday

    Time Temperature Precipitation Wind Pressure Humidity
    00:00 +16°C° 0 mm 0 mps 621 mmHg 42%
    01:00 +16°C° 0 mm 0 mps 621 mmHg 43%
    02:00 +15°C° 0 mm 0 mps 621 mmHg 45%
    03:00 +15°C° 0 mm 0 mps 621 mmHg 47%
    04:00 +16°C° 0 mm 1 mps 621 mmHg 50%
    05:00 +18°C° 0 mm 1 mps 622 mmHg 51%
    06:00 +19°C° 0 mm 1 mps 623 mmHg 52%
    07:00 +20°C° 0 mm 1 mps 624 mmHg 53%
    08:00 +21°C° 0 mm 2 mps 625 mmHg 49%
    09:00 +23°C° 0 mm 4 mps 625 mmHg 44%
    10:00 +26°C° 0 mm 5 mps 626 mmHg 40%
    11:00 +26°C° 0 mm 5 mps 626 mmHg 40%
    12:00 +26°C° 0 mm 5 mps 625 mmHg 40%
    13:00 +26°C° 0 mm 5 mps 624 mmHg 41%
    14:00 +25°C° 1.3 mm 5 mps 624 mmHg 48%
    15:00 +22°C° 1.3 mm 5 mps 623 mmHg 55%
    16:00 +21°C° 1.3 mm 6 mps 623 mmHg 62%
    17:00 +20°C° 1.5 mm 4 mps 623 mmHg 68%
    18:00 +19°C° 1.5 mm 3 mps 623 mmHg 74%
    19:00 +19°C° 1.5 mm 1 mps 623 mmHg 80%
    20:00 +19°C° 0.9 mm 1 mps 624 mmHg 79%
    21:00 +18°C° 0.9 mm 2 mps 624 mmHg 79%
    22:00 +18°C° 0.9 mm 2 mps 624 mmHg 79%
    23:00 +18°C° 0.5 mm 2 mps 624 mmHg 78%

    10 April, Friday

    Time Temperature Precipitation Wind Pressure Humidity
    00:00 +17°C° 0.5 mm 2 mps 623 mmHg 77%
    01:00 +18°C° 0.5 mm 1 mps 623 mmHg 76%
    02:00 +17°C° 0.6 mm 2 mps 623 mmHg 76%
    03:00 +17°C° 0.6 mm 3 mps 623 mmHg 77%
    04:00 +17°C° 0.6 mm 4 mps 623 mmHg 77%
    05:00 +17°C° 0.2 mm 4 mps 623 mmHg 75%
    06:00 +18°C° 0.2 mm 4 mps 624 mmHg 73%
    07:00 +18°C° 0.2 mm 3 mps 624 mmHg 71%
    08:00 +20°C° 0.2 mm 4 mps 624 mmHg 66%
    09:00 +21°C° 0.2 mm 5 mps 625 mmHg 60%
    10:00 +22°C° 0.2 mm 6 mps 625 mmHg 55%
    11:00 +23°C° 0.4 mm 6 mps 625 mmHg 51%
    12:00 +24°C° 0.4 mm 6 mps 625 mmHg 48%
    13:00 +26°C° 0.4 mm 5 mps 625 mmHg 44%
    14:00 +25°C° 0.3 mm 5 mps 624 mmHg 47%
    15:00 +25°C° 0.3 mm 4 mps 624 mmHg 49%
    16:00 +24°C° 0.3 mm 3 mps 624 mmHg 52%
    17:00 +22°C° 0.3 mm 3 mps 624 mmHg 57%
    18:00 +21°C° 0.3 mm 2 mps 624 mmHg 61%
    19:00 +21°C° 0.3 mm 1 mps 624 mmHg 66%
    20:00 +21°C° 0.4 mm 1 mps 624 mmHg 69%
    21:00 +20°C° 0.4 mm 1 mps 624 mmHg 73%
    22:00 +17°C° 0.4 mm 0 mps 624 mmHg 76%
    23:00 +17°C° 0.1 mm 0 mps 623 mmHg 76%

    11 April, Saturday

    Time Temperature Precipitation Wind Pressure Humidity
    00:00 +19°C° 0.1 mm 1 mps 623 mmHg 76%
    01:00 +19°C° 0.1 mm 1 mps 623 mmHg 77%
    02:00 +18°C° 0 mm 1 mps 623 mmHg 77%
    03:00 +18°C° 0 mm 1 mps 622 mmHg 78%
    04:00 +18°C° 0 mm 1 mps 622 mmHg 78%
    05:00 +18°C° 0 mm 1 mps 623 mmHg 76%
    06:00 +19°C° 0 mm 1 mps 623 mmHg 74%
    07:00 +19°C° 0 mm 2 mps 624 mmHg 72%
    08:00 +20°C° 0 mm 3 mps 624 mmHg 64%
    09:00 +22°C° 0 mm 4 mps 625 mmHg 57%
    10:00 +25°C° 0 mm 5 mps 625 mmHg 50%
    11:00 +26°C° 0 mm 4 mps 625 mmHg 46%
    12:00 +26°C° 0 mm 4 mps 624 mmHg 43%
    13:00 +27°C° 0 mm 3 mps 624 mmHg 39%
    14:00 +27°C° 0 mm 3 mps 624 mmHg 40%
    15:00 +26°C° 0 mm 3 mps 623 mmHg 40%
    16:00 +26°C° 0 mm 2 mps 623 mmHg 41%
    17:00 +25°C° 0 mm 2 mps 623 mmHg 45%
    18:00 +24°C° 0 mm 2 mps 623 mmHg 49%
    19:00 +23°C° 0 mm 2 mps 623 mmHg 53%
    20:00 +21°C° 0 mm 2 mps 623 mmHg 55%
    21:00 +21°C° 0 mm 2 mps 623 mmHg 57%
    22:00 +21°C° 0 mm 2 mps 623 mmHg 60%
    23:00 +21°C° 0 mm 1 mps 623 mmHg 62%

    12 April, Sunday

    Time Temperature Precipitation Wind Pressure Humidity
    00:00 +20°C° 0 mm 1 mps 623 mmHg 65%
    01:00 +20°C° 0 mm 1 mps 623 mmHg 68%
    02:00 +19°C° 0 mm 1 mps 622 mmHg 69%
    03:00 +17°C° 0 mm 0 mps 622 mmHg 70%
    04:00 +17°C° 0 mm 0 mps 622 mmHg 70%
    05:00 +18°C° 0 mm 0 mps 622 mmHg 69%
    06:00 +20°C° 0 mm 1 mps 623 mmHg 67%
    07:00 +21°C° 0 mm 1 mps 623 mmHg 66%
    08:00 +22°C° 0.1 mm 1 mps 624 mmHg 62%
    09:00 +23°C° 0.1 mm 1 mps 624 mmHg 58%
    10:00 +23°C° 0.1 mm 2 mps 624 mmHg 54%
    11:00 +24°C° 0 mm 3 mps 624 mmHg 51%
    12:00 +25°C° 0 mm 4 mps 624 mmHg 47%
    13:00 +26°C° 0 mm 5 mps 624 mmHg 44%
    14:00 +26°C° 0 mm 5 mps 623 mmHg 45%
    15:00 +25°C° 0 mm 4 mps 623 mmHg 46%
    16:00 +25°C° 0 mm 4 mps 623 mmHg 47%
    17:00 +22°C° 0 mm 3 mps 623 mmHg 54%
    18:00 +20°C° 0 mm 3 mps 622 mmHg 62%
    19:00 +19°C° 0 mm 2 mps 622 mmHg 69%
    20:00 +19°C° 0 mm 2 mps 622 mmHg 68%
    21:00 +19°C° 0 mm 2 mps 622 mmHg 67%
    22:00 +19°C° 0 mm 2 mps 623 mmHg 65%
    23:00 +19°C° 0 mm 1 mps 622 mmHg 65%
    Show more